Date String (YYYY-MM-DD hh:mm:ss) UTC,Instrument flags,Ambient pressure (hPa),Sample flow (lpm),Bypass flow (lpm),Sample temperature (°C),Ambient temperature (°C),ASC tube jacket temperature (°C),LED temperature (°C),Box temperature (°C),Sample RH (%),Span deviation,Mass concentration (μg/m³),Mass concentration (μg/m³),Mass concentration (μg/m³)
DateTimeUTC,F1_M11,P_M11,Q1_M11,Q2_M11,T1_M11,T2_M11,T3_M11,T4_M11,T5_M11,U1_M11,ZSPAN_M11,X0_M11,X2_M11,X1_M11
2023-04-10 22:00:00,,0835.9,5.01,0.00,29.4,28.2,00.0,37.6,30.9,08.0,0000.0,0011.76,0003.85,0002.23
2023-04-10 22:01:00,,0835.9,5.00,0.00,29.4,28.2,00.0,37.6,31.0,08.1,0000.0,0012.39,0003.88,0002.23
2023-04-10 22:02:00,,0835.9,5.00,0.00,29.4,28.2,00.0,37.7,31.0,08.1,0000.0,0013.20,0003.89,0002.23
2023-04-10 22:03:00,,0835.9,4.99,0.00,29.4,28.3,00.0,37.7,31.0,08.0,0000.0,0012.86,0003.88,0002.21
2023-04-10 22:04:00,,0835.9,5.00,0.00,29.4,28.3,00.0,37.7,31.0,08.1,0000.0,0012.60,0003.83,0002.17
2023-04-10 22:05:00,,0835.9,5.00,0.00,29.5,28.3,00.0,37.7,31.0,08.3,0000.0,0012.93,0003.81,0002.14
2023-04-10 22:06:00,,0835.9,4.99,0.00,29.5,28.3,00.0,37.7,31.0,08.3,0000.0,0013.13,0003.79,0002.11
2023-04-10 22:07:00,,0836.0,4.99,0.00,29.5,28.3,00.0,37.8,31.0,08.3,0000.0,0012.83,0003.75,0002.06
2023-04-10 22:08:00,,0835.9,5.00,0.00,29.5,28.3,00.0,37.8,31.0,08.1,0000.0,0012.36,0003.70,0002.01
2023-04-10 22:09:00,,0836.0,5.01,0.00,29.5,28.3,00.0,37.8,31.1,08.2,0000.0,0012.50,0003.70,0002.01
2023-04-10 22:10:00,,0836.0,5.01,0.00,29.6,28.4,00.0,37.8,31.1,08.3,0000.0,0012.99,0003.75,0002.00
2023-04-10 22:11:00,,0835.9,5.01,0.00,29.6,28.4,00.0,37.8,31.1,08.1,0000.0,0012.52,0003.72,0001.99
2023-04-10 22:12:00,,0835.9,4.99,0.00,29.6,28.4,00.0,37.8,31.1,08.1,0000.0,0011.78,0003.66,0001.99
2023-04-10 22:13:00,,0835.9,5.00,0.00,29.6,28.4,00.0,37.8,31.1,08.3,0000.0,0011.41,0003.64,0001.98
2023-04-10 22:14:00,,0836.0,5.00,0.00,29.6,28.4,00.0,37.8,31.1,08.1,0000.0,0012.27,0003.67,0002.00
2023-04-10 22:15:00,,0835.9,5.00,0.00,29.6,28.4,00.0,37.9,31.1,08.1,0000.0,0012.60,0003.78,0002.03
2023-04-10 22:16:00,,0835.9,5.01,0.00,29.6,28.4,00.0,37.9,31.2,08.1,0000.0,0012.49,0003.80,0002.03
2023-04-10 22:17:00,,0835.9,5.00,0.00,29.7,28.4,00.0,37.9,31.2,08.2,0000.0,0012.08,0003.81,0002.05
2023-04-10 22:18:00,,0835.9,5.00,0.00,29.7,28.5,00.0,37.9,31.2,08.2,0000.0,0012.70,0003.83,0002.06
2023-04-10 22:19:00,,0835.9,5.00,0.00,29.7,28.5,00.0,37.9,31.2,08.1,0000.0,0013.34,0003.84,0002.08
2023-04-10 22:20:00,,0835.9,4.99,0.00,29.7,28.5,00.0,37.9,31.2,08.2,0000.0,0013.37,0003.85,0002.08
2023-04-10 22:21:00,,0835.9,5.00,0.00,29.7,28.5,00.0,38.0,31.2,08.1,0000.0,0013.30,0003.85,0002.10
2023-04-10 22:22:00,,0835.9,5.01,0.00,29.7,28.5,00.0,38.0,31.2,08.1,0000.0,0013.03,0003.84,0002.11
2023-04-10 22:23:00,,0835.9,5.01,0.00,29.7,28.5,00.0,38.0,31.2,08.1,0000.0,0013.00,0003.85,0002.15
2023-04-10 22:24:00,,0835.9,5.00,0.00,29.7,28.5,00.0,38.0,31.2,08.1,0000.0,0013.20,0003.91,0002.17
2023-04-10 22:25:00,,0835.8,5.00,0.00,29.7,28.5,00.0,38.0,31.2,08.0,0000.0,0012.20,0003.92,0002.17
2023-04-10 22:26:00,,0835.8,5.00,0.00,29.8,28.5,00.0,38.0,31.2,08.0,0000.0,0012.62,0003.88,0002.16
2023-04-10 22:27:00,,0835.9,5.00,0.00,29.8,28.5,00.0,38.0,31.3,07.9,0000.0,0012.67,0003.84,0002.16
2023-04-10 22:28:00,,0835.8,5.00,0.00,29.8,28.6,00.0,38.0,31.3,08.0,0000.0,0012.82,0003.80,0002.18
2023-04-10 22:29:00,,0835.8,5.00,0.00,29.8,28.6,00.0,38.1,31.3,08.0,0000.0,0012.93,0003.78,0002.18
2023-04-10 22:30:00,,0835.8,5.00,0.00,29.8,28.6,00.0,38.1,31.2,08.0,0000.0,0011.68,0003.76,0002.19
2023-04-10 22:31:00,,0835.8,4.99,0.00,29.8,28.6,00.0,38.1,31.2,08.0,0000.0,0011.73,0003.77,0002.19
2023-04-10 22:32:00,,0835.8,5.00,0.00,29.8,28.6,00.0,38.1,31.3,08.3,0000.0,0011.52,0003.78,0002.19
2023-04-10 22:33:00,,0835.7,5.00,0.00,29.8,28.6,00.0,38.1,31.3,08.3,0000.0,0012.05,0003.77,0002.18
2023-04-10 22:34:00,,0835.7,5.00,0.00,29.8,28.6,00.0,38.1,31.3,08.3,0000.0,0012.92,0003.78,0002.16
2023-04-10 22:35:00,,0835.6,4.99,0.00,29.9,28.6,00.0,38.1,31.3,08.3,0000.0,0012.90,0003.79,0002.16
2023-04-10 22:36:00,,0835.8,5.00,0.00,29.9,28.7,00.0,38.1,31.4,08.4,0000.0,0013.05,0003.84,0002.18
2023-04-10 22:37:00,,0835.7,5.00,0.00,29.9,28.7,00.0,38.2,31.4,08.5,0000.0,0012.54,0003.88,0002.20
2023-04-10 22:38:00,,0835.9,5.00,0.00,29.9,28.7,00.0,38.2,31.4,08.5,0000.0,0012.62,0003.91,0002.23
2023-04-10 22:39:00,,0835.7,5.00,0.00,29.9,28.7,00.0,38.2,31.4,08.3,0000.0,0012.87,0003.94,0002.23
2023-04-10 22:40:00,,0835.7,5.00,0.00,29.9,28.7,00.0,38.2,31.4,08.2,0000.0,0012.29,0003.98,0002.25
2023-04-10 22:41:00,,0835.7,4.99,0.00,29.9,28.7,00.0,38.2,31.4,08.2,0000.0,0013.59,0004.01,0002.26
2023-04-10 22:42:00,,0835.6,5.00,0.00,30.0,28.7,00.0,38.2,31.4,08.3,0000.0,0014.12,0004.02,0002.29
2023-04-10 22:43:00,,0835.6,5.00,0.00,30.0,28.7,00.0,38.2,31.5,08.4,0000.0,0014.33,0004.05,0002.31
2023-04-10 22:44:00,,0835.6,5.01,0.00,30.0,28.7,00.0,38.2,31.5,08.4,0000.0,0013.99,0004.10,0002.32
2023-04-10 22:45:00,,0835.6,5.00,0.00,30.0,28.7,00.0,38.3,31.5,08.3,0000.0,0013.59,0004.15,0002.32
2023-04-10 22:46:00,,0835.7,5.00,0.00,30.0,28.7,00.0,38.3,31.5,08.1,0000.0,0014.31,0004.10,0002.31
2023-04-10 22:47:00,,0835.7,5.01,0.00,30.0,28.7,00.0,38.3,31.5,08.2,0000.0,0014.30,0004.05,0002.29
2023-04-10 22:48:00,,0835.7,5.01,0.00,30.0,28.7,00.0,38.3,31.5,08.3,0000.0,0014.25,0004.01,0002.28
2023-04-10 22:49:00,,0835.7,5.01,0.00,30.0,28.8,00.0,38.3,31.5,08.1,0000.0,0013.76,0004.04,0002.28
2023-04-10 22:50:00,,0835.8,5.00,0.00,30.0,28.8,00.0,38.3,31.5,08.1,0000.0,0013.46,0004.06,0002.29
2023-04-10 22:51:00,,0835.6,4.99,0.00,30.0,28.8,00.0,38.3,31.5,08.1,0000.0,0014.31,0004.08,0002.28
2023-04-10 22:52:00,,0835.9,4.99,0.00,30.1,28.8,00.0,38.3,31.6,08.1,0000.0,0013.59,0004.09,0002.29
2023-04-10 22:53:00,,0835.9,4.99,0.00,30.1,28.8,00.0,38.4,31.6,08.2,0000.0,0013.84,0004.13,0002.31
2023-04-10 22:54:00,,0835.7,5.00,0.00,30.1,28.9,00.0,38.4,31.6,08.1,0000.0,0014.75,0004.13,0002.32
2023-04-10 22:55:00,,0835.6,5.00,0.00,30.1,28.9,00.0,38.4,31.6,08.1,0000.0,0015.40,0004.12,0002.34
2023-04-10 22:56:00,,0835.6,5.01,0.00,30.1,28.9,00.0,38.4,31.6,08.2,0000.0,0015.24,0004.13,0002.37
2023-04-10 22:57:00,,0835.6,5.00,0.00,30.1,29.0,00.0,38.4,31.7,08.3,0000.0,0014.86,0004.11,0002.36
2023-04-10 22:58:00,,0835.6,5.00,0.00,30.1,29.0,00.0,38.4,31.6,08.3,0000.0,0014.87,0004.13,0002.36
2023-04-10 22:59:00,,0835.6,4.99,0.00,30.2,29.0,00.0,38.4,31.7,08.4,0000.0,0015.47,0004.17,0002.36
